Location: Bailleul
(50.3375°N, 2.8513°E)
Time: 15:40:22
(UTC+00:00)

Genesis I - Pass Details

Date: 19 April 2021
Orbit: 483 x 537 km, 64.5° (Epoch: 06 May)

Event Time Altitude Azimuth Distance (km) Brightness Sun altitude
Rises 19:59:38 0° 321° (NW) 2,665 8.4 -10.8°
Reaches altitude 10° 20:01:55 10° 329° (NNW) 1,781 7.0 -11.1°
Maximum altitude 20:05:42 39° 40° (NE) 808 4.1 -11.6°
Enters shadow 20:08:28 17° 104° (ESE) 1,416 4.8 -12.0°
